Regional Weather Roundup
Issued by NWS

Home | Current Version | Previous Version | Text Only | Print | Product List | Glossary Off
Versions: 1 2 3 4 5 6 7 8 9 10 11 12 13 14 15 16 17 18 19 20 21 22 23 24 25 26 27 28 29 30 31 32 33 34 35 36 37 38 39 40 41 42 43 44 45 46 47 48 49 50

000
ASUS43 KOAX 041510
RWRNE

WEATHER ROUNDUP FOR NEBRASKA
NATIONAL WEATHER SERVICE OMAHA NE
1000 AM CDT TUE AUG 04 2015

NOTES: SATELLITE DATA IS BEING USED TO AUGMENT CLOUD COVER ABOVE
       12000 FEET.
       "FAIR" INDICATES FEW OR NO CLOUDS BELOW 12,000 FEET WITH NO
       SIGNIFICANT WEATHER AND/OR OBSTRUCTIONS TO VISIBILITY.

  * THESE STATIONS DO NOT REPORT WEATHER SUCH AS RAIN...SNOW OR FOG.

NEZ001>004-019>022-054>056-041600-
NEBRASKA PANHANDLE

CITY           SKY/WX    TMP DP  RH WIND       PRES   REMARKS
SCOTTSBLUFF    LGT RAIN  67  57  70 NW5       30.00F
ALLIANCE         N/A     67  63  87 SE12      30.01R
CHADRON        MOSUNNY   74  60  61 SE13      29.96F
KIMBALL        PTSUNNY   76  49  38 W16G23    30.04F
SIDNEY         PTSUNNY   64  58  80 E6        30.04S
$$

NEZ057>060-069>072-079>082-041600-
SOUTHWEST NEBRASKA

CITY           SKY/WX    TMP DP  RH WIND       PRES   REMARKS
NORTH PLATTE   LGT RAIN  66  64  93 E20G28    29.99F
IMPERIAL       PTSUNNY   73  65  75 E10       29.98F
LEXINGTON      CLOUDY    69  66  92 E15       30.00F
MCCOOK         CLOUDY    70  68  93 E12       29.95F FOG
OGALLALA       CLOUDY    67  66  96 E10       29.99F FOG
$$

NEZ005>010-023>029-035>040-094-041600-
NORTH CENTRAL NEBRASKA

CITY           SKY/WX    TMP DP  RH WIND       PRES   REMARKS
AINSWORTH      MOSUNNY   69  61  75 SE13      29.98F
BROKEN BOW     CLOUDY    72  60  66 E15G25    30.02F
O`NEILL        CLOUDY    65  65  97 SE10      30.00F
ORD            LGT RAIN  66  63  90 SE10      30.02F
THEDFORD       PTSUNNY   74  59  61 SE16G25   30.02F
$$

NEZ041-046>049-061>064-073>077-083>087-041600-
SOUTH CENTRAL NEBRASKA

CITY           SKY/WX    TMP DP  RH WIND       PRES   REMARKS
GRAND ISLAND   LGT RAIN  70  64  81 E9        30.03F
AURORA         PTSUNNY   69  67  92 E12       30.03F
HASTINGS       CLOUDY    71  63  75 E10G21    30.03R
HEBRON         CLOUDY    72  64  77 E15       30.01S
HOLDREGE       FOG       67  66  96 E16G22    30.01R VSB 1
KEARNEY *      CLOUDY    70  64  83 E14       30.02S
YORK           LGT RAIN  66  66 100 NE6       30.04F
$$

NEZ011>018-030>034-042>045-041600-
NORTHEAST NEBRASKA

CITY           SKY/WX    TMP DP  RH WIND       PRES   REMARKS
NORFOLK        CLOUDY    67  64  90 E6        30.01F
ALBION         CLOUDY    64  62  94 CALM      30.04F
BLAIR          DRIZZLE   65  62  90 S12       30.05R
COLUMBUS *     CLOUDY    64  61  88 E5        30.04F
FREMONT        LGT RAIN  67  64  88 SE12      30.03R
TEKAMAH        CLOUDY    69  66  90 S7        30.02R
WAYNE          CLOUDY    68  65  89 CALM      30.05R
$$

NEZ050>053-065>068-078-088>093-041600-
SOUTHEAST NEBRASKA

CITY           SKY/WX    TMP DP  RH WIND       PRES   REMARKS
LINCOLN        CLOUDY    68  66  93 E5        30.02F
OMAHA EPPLEY   CLOUDY    68  65  90 S9        30.05R
BEATRICE       CLOUDY    71  65  81 E13       30.03R
FALLS CITY     CLOUDY    73  67  81 NE9       30.01S
NEBRASKA CITY  CLOUDY    66  66  98 NE6       30.05R
PLATTSMOUTH    CLOUDY    65  64  96 CALM      30.05R
$$

NEZ044-045-051>053-067-041600-
OMAHA AREA

CITY           SKY/WX    TMP DP  RH WIND       PRES   REMARKS
OMAHA EPPLEY   CLOUDY    68  65  90 S9        30.05R
BLAIR          DRIZZLE   65  62  90 S12       30.05R
FREMONT        LGT RAIN  67  64  88 SE12      30.03R
MILLARD        LGT RAIN  68  65  90 SE5       30.05R
OFFUTT AFB     CLOUDY    67  65  94 SW3       30.05R
PLATTSMOUTH    CLOUDY    65  64  96 CALM      30.05R
WAHOO          LGT RAIN  67  65  93 NE3       30.04S
$$


USA.gov is the U.S. government's official web portal to all federal, state and local government web resources and services.